[Iaude] MPEC C12: 2024 BU4 [a=0.93,e=0.26,i=14.8,H=23.1]

mpec at marsden.cfa.harvard.edu mpec at marsden.cfa.harvard.edu
Thu Feb 1 15:37:57 EST 2024


M.P.E.C. 2024-C12                              Issued 2024 February 1, 20:36 UT

     The Minor Planet Electronic Circulars contain information on unusual
         minor planets, routine data on comets and natural satellites,
         and occasional editorial announcements.  They are published
    on behalf of Division F of the International Astronomical Union by the
          Minor Planet Center, Smithsonian Astrophysical Observatory,
                          Cambridge, MA 02138, U.S.A.
			  
             Prepared using the Tamkin Foundation Computer Network

                              MPC at CFA.HARVARD.EDU
            URL https://www.minorplanetcenter.net/    ISSN 1523-6714

                                    2024 BU4                                    


Observations:
     K24B04U*1C2024 01 31.46199015 03 16.920+58 09 48.17         19.13GVEC012G96
     K24B04U 1C2024 01 31.46717315 03 06.653+58 10 18.30         19.26GVEC012G96
     K24B04U 1C2024 01 31.47236715 02 56.360+58 10 48.04         19.23GVEC012G96
     K24B04U 1C2024 01 31.47756415 02 46.036+58 11 17.74         19.17GVEC012G96
     K24B04U KC2024 01 31.49636015 02 08.581+58 13 03.76         18.96GVEC012I52
     K24B04U KC2024 01 31.49687115 02 07.566+58 13 06.92         19.20GVEC012I52
     K24B04U KC2024 01 31.49738215 02 06.511+58 13 09.77         19.08GVEC012I52
     K24B04U KC2024 01 31.49789115 02 05.525+58 13 12.61         19.59GVEC012I52
     K24B04U KB2024 01 31.95609 14 46 55.86 +58 49 27.9          19.6 RZEC012106
     K24B04U KB2024 01 31.95940 14 46 48.97 +58 49 44.8          18.8 RZEC012106
     K24B04U KB2024 01 31.96259 14 46 42.33 +58 50 01.7          19.1 RZEC012106
     K24B04U KB2024 01 31.96578 14 46 35.68 +58 50 18.1          18.9 RZEC012106
     K24B04U KB2024 02 01.00568 14 45 10.91 +58 53 59.7          19.3 GXEC012M45
     K24B04U KB2024 02 01.01470 14 44 51.61 +58 54 45.6          19.1 GXEC012M45
     K24B04U KB2024 02 01.08586 14 42 19.94 +59 00 16.3          19.2 GVEC012204
     K24B04U KB2024 02 01.09128 14 42 08.11 +59 00 42.5                VEC012204
     K24B04U KB2024 02 01.09664 14 41 56.39 +59 01 08.6                VEC012204
     K24B04U KC2024 02 01.32759214 33 37.56 +59 17 14.4          19.3 GVEC012H21
     K24B04U KC2024 02 01.33038714 33 31.26 +59 17 26.9          19.4 GVEC012H21
     K24B04U KC2024 02 01.33318314 33 24.92 +59 17 39.5          19.5 GVEC012H21
     K24B04U 1C2024 02 01.82126 14 14 38.18 +59 43 34.1          20.1 VXEC012033
     K24B04U 1C2024 02 01.82148 14 14 37.67 +59 43 34.4          19.9 VXEC012033
     K24B04U 1C2024 02 01.82172 14 14 37.10 +59 43 35.3          20.1 VXEC012033

Observer details:
033 Karl Schwarzschild Observatory, Tautenburg.  Observers S. Melnikov, C.
    Hogner, F. Ludwig, M. Hartmann, B. Stecklum.  Measurer B. Stecklum.
    1.34-m f/3 Schmidt + CCD.
106 Crni Vrh.  Observer H. Mikuz.  0.60-m f/3.3 reflector + CMO.
204 Schiaparelli Observatory.  Observer L. Buzzi.  0.84-m f/3.5 reflector +
    CMO.
G96 Mt. Lemmon Survey.  Observer J. K. Hogan.  Measurers T. Beuden, V. F.
    Carvajal, D. Fay, J. B. Fazekas, D. C. Fuls, A. R. Gibbs, A. D. Grauer, H.
    Groeller, J. K. Hogan, R. A. Kowalski, S. M. Larson, G. J. Leonard, D.
    Rankin, R. L. Seaman, F. C. Shelly, K. W. Wierzchos.  1.5-m reflector +
    10K CCD.
H21 Astronomical Research Observatory, Westfield.  Observer R. Holmes.
    Measurers T. Linder, R. Holmes, L. Horn.  0.76-m f/3.0 astrograph + CCD.
I52 Steward Observatory, Mt. Lemmon Station.  Observer R. A. Kowalski.
    Measurers E. C. Beshore, D. Fay, J. B. Fazekas, D. C. Fuls, A. R. Gibbs,
    A. D. Grauer, H. Groeller, J. K. Hogan, R. A. Kowalski, S. M. Larson, G.
    J. Leonard, D. Rankin, R. L. Seaman, F. C. Shelly, K. W. Wierzchos.  1.0-m
    prime focus + CCD.
M45 Starhopper Observatory, Sfantu Gheorghe.  Observer F. Ursache.  0.41-m
    f/7.5 reflector + CMO.

Orbital elements:
2024 BU4                                                 Earth MOID = 0.0513 AU
Epoch 2023 Sept. 13.0 TT = JDT 2460200.5                MPC                     
M 298.65426              (2000.0)            P               Q                  
n   1.09087342     Peri.   46.92620     +0.96638490     -0.20982974             
a   0.9345872      Node   324.41549     +0.08818414     +0.81332081             
e   0.2582117      Incl.   14.79193     +0.24150317     +0.54266080             
P   0.90           H   23.16          G   0.15           U   7                  
Residuals in seconds of arc
240131 G96  0.1-  0.1-    240131 106  0.1-  0.1-    240201 204  0.2-  0.3+
240131 G96  0.2-  0.1+    240131 106  0.2-  0.4-    240201 H21  0.2-  0.0
240131 G96  0.2-  0.1+    240131 106  0.2-  0.0     240201 H21  0.1+  0.0
240131 G96  0.2-  0.1+    240131 106  0.3-  0.2-    240201 H21  0.1+  0.0
240131 I52  0.2+  0.3-    240201 M45  0.0   0.3-    240201 033  0.1-  0.1-
240131 I52  0.3+  0.0     240201 M45  0.0   0.1+    240201 033  0.1-  0.5-
240131 I52  0.0   0.0     240201 204  0.2-  0.1+    240201 033  0.2-  0.4-
240131 I52  0.3+  0.0     240201 204  0.2-  0.1+

Ephemeris:
2024 BU4                 a,e,i = 0.93, 0.26, 15                  q = 0.6933
Date    TT    R. A. (2000) Decl.     Delta      r    Elong.  Phase     V
2024 01 02    18 22 06.6 +26 44 52   0.2016  0.8679    50.1   119.6    24.2
...
2024 01 17    17 47 50.9 +37 31 53   0.1255  0.9384    65.4   107.6    22.5
...
2024 01 25    17 00 27.1 +47 02 57   0.08760 0.9741    80.7    94.2    21.2
...
2024 01 31    15 17 10.8 +57 25 58   0.06378 0.9996   101.4    75.1    19.8
2024 02 01    14 45 12.9 +58 53 45   0.06070 1.0037   106.1    70.6    19.6
2024 02 02    14 07 19.8 +59 53 24   0.05801 1.0078   111.2    65.7    19.3
...
2024 02 08    10 06 58.6 +47 19 47   0.05346 1.0314   146.7    31.6    18.2
...
2024 02 16    08 19 04.8 +18 19 44   0.07894 1.0605   156.3    22.0    18.8
...
2024 03 02    07 42 36.0 -00 23 38   0.1626  1.1068   132.2    41.6    21.1

A. U. Tomatic                (C) Copyright 2024 MPC           M.P.E.C. 2024-C12





More information about the Iaude mailing list